QPF
0.00 0.00 0.00 0.00 0.00 0.00 0.00 0.01 0.00 0.00 0.00 0.00 0.00 0.00 0.00 0.00 0.00 0.00 0.00 0.00 0.00 0.00 0.00 0.00 0.00 0.00 0.00 0.00 0.00 0.00 0.00 0.00 0.00 0.00 0.00 0.00 0.00 0.00 0.00 0.00 0.00 0.00 0.00 0.00
0.00 0.00 0.00 0.00 0.00 0.00 0.00 0.00 0.00 0.00 0.00 0.00 0.00 0.00 0.00 0.00 0.00 0.00 0.00 0.00 0.00 0.00 0.00 0.00 0.00 0.00 0.00 0.00 0.00 0.00 0.00 0.00 0.00 0.00 0.00 0.00 0.00 0.00 0.00 0.00 0.00 0.00 0.00 0.00
0.00 0.00 0.00 0.00 0.00 0.00 0.00 0.00 0.00 0.00 0.00 0.00 0.00 0.00 0.00 0.00 0.00 0.00 0.00 0.00 0.01 0.01 0.00 0.00 0.00 0.00 0.01 0.01 0.00 0.00 0.00 0.00 0.00 0.00 0.00 0.01 0.00 0.00 0.00 0.01 0.01 0.01 0.01 0.01
0.00 0.00 0.00 0.00 0.00 0.00 0.00 0.00 0.00 0.00 0.00 0.00 0.00 0.00 0.00 0.00 0.00 0.00 0.00 0.00 0.01 0.01 0.01 0.01 0.00 0.00 0.01 0.01 0.00 0.00 0.00 0.00 0.01 0.01 0.01 0.01 0.01 0.01 0.01 0.02 0.03 0.03 0.02 0.01
0.01 0.01 0.00 0.00 0.00 0.00 0.00 0.00 0.00 0.00 0.00 0.00 0.00 0.00 0.00 0.00 0.00 0.00 0.00 0.00 0.00 0.01 0.01 0.01 0.01 0.01 0.00 0.00 0.00 0.00 0.01 0.01 0.01 0.01 0.01 0.02 0.03 0.04 0.05 0.05 0.04 0.02 0.01 0.00
0.01 0.01 0.00 0.00 0.00 0.00 0.00 0.00 0.00 0.00 0.00 0.00 0.00 0.00 0.00 0.00 0.00 0.00 0.00 0.00 0.00 0.00 0.00 0.00 0.00 0.01 0.00 0.00 0.01 0.00 0.00 0.00 0.00 0.00 0.01 0.02 0.03 0.04 0.04 0.02 0.01 0.00 0.00 0.00
0.01 0.00 0.00 0.00 0.00 0.00 0.00 0.00 0.00 0.00 0.00 0.00 0.00 0.00 0.00 0.00 0.00 0.00 0.00 0.00 0.00 0.00 0.00 0.00 0.00 0.00 0.00 0.00 0.01 0.00 0.00 0.00 0.00 0.00 0.01 0.01 0.01 0.00 0.01 0.01 0.01 0.00 0.00 0.00
0.00 0.00 0.00 0.00 0.00 0.00 0.00 0.00 0.00 0.00 0.00 0.00 0.00 0.00 0.00 0.00 0.00 0.00 0.00 0.00 0.00 0.00 0.00 0.00 0.00 0.00 0.00 0.00 0.00 0.00 0.00 0.00 0.00 0.00 0.01 0.01 0.00 0.00 0.01 0.01 0.01 0.00 0.00 0.00
0.00 0.00 0.00 0.00 0.00 0.00 0.00 0.00 0.00 0.00 0.00 0.00 0.00 0.00 0.00 0.00 0.00 0.00 0.00 0.00 0.00 0.00 0.00 0.01 0.00 0.00 0.00 0.00 0.00 0.00 0.00 0.00 0.00 0.00 0.00 0.00 0.00 0.00 0.00 0.01 0.00 0.00 0.00 0.00
0.00 0.00 0.00 0.00 0.00 0.00 0.00 0.00 0.00 0.00 0.00 0.00 0.00 0.00 0.00 0.00 0.00 0.00 0.00 0.00 0.00 0.00 0.01 0.01 0.01 0.00 0.00 0.00 0.00 0.00 0.00 0.00 0.00 0.00 0.00 0.00 0.00 0.00 0.00 0.00 0.00 0.00 0.00 0.00
0.00 0.00 0.00 0.00 0.00 0.00 0.00 0.00 0.00 0.00 0.00 0.00 0.00 0.00 0.00 0.00 0.00 0.00 0.00 0.00 0.00 0.00 0.01 0.01 0.01 0.01 0.00 0.00 0.00 0.00 0.00 0.00 0.00 0.00 0.00 0.00 0.00 0.00 0.01 0.00 0.00 0.00 0.00 0.00
0.00 0.00 0.00 0.00 0.00 0.00 0.00 0.00 0.00 0.00 0.00 0.00 0.00 0.00 0.00 0.00 0.00 0.00 0.00 0.00 0.00 0.00 0.00 0.01 0.01 0.01 0.01 0.00 0.00 0.00 0.00 0.00 0.00 0.00 0.00 0.00 0.00 0.00 0.01 0.01 0.01 0.00 0.00 0.00
0.00 0.00 0.00 0.00 0.00 0.00 0.00 0.00 0.00 0.00 0.00 0.00 0.00 0.00 0.00 0.00 0.00 0.00 0.00 0.00 0.00 0.00 0.00 0.01 0.01 0.01 0.01 0.01 0.00 0.00 0.00 0.00 0.00 0.00 0.00 0.00 0.00 0.00 0.00 0.00 0.00 0.00 0.00 0.00
0.00 0.00 0.00 0.00 0.00 0.00 0.00 0.00 0.00 0.00 0.00 0.00 0.00 0.00 0.00 0.00 0.00 0.00 0.00 0.00 0.00 0.00 0.00 0.01 0.01 0.01 0.01 0.00 0.00 0.00 0.00 0.00 0.00 0.00 0.00 0.00 0.00 0.00 0.00 0.00 0.00 0.00 0.00 0.00
0.00 0.00 0.00 0.00 0.00 0.00 0.00 0.00 0.00 0.00 0.00 0.00 0.00 0.00 0.00 0.00 0.01 0.01 0.01 0.00 0.00 0.00 0.00 0.00 0.00 0.00 0.01 0.00 0.00 0.00 0.00 0.00 0.00 0.00 0.00 0.00 0.00 0.00 0.00 0.00 0.00 0.00 0.00 0.00
0.00 0.00 0.00 0.00 0.00 0.00 0.00 0.00 0.00 0.00 0.00 0.00 0.00 0.00 0.00 0.01 0.01 0.01 0.01 0.01 0.00 0.00 0.00 0.00 0.00 0.00 0.00 0.00 0.00 0.00 0.00 0.00 0.01 0.00 0.00 0.00 0.01 0.00 0.00 0.00 0.00 0.00 0.00 0.00
0.00 0.00 0.00 0.00 0.00 0.00 0.00 0.00 0.00 0.00 0.00 0.00 0.00 0.00 0.00 0.01 0.01 0.01 0.01 0.01 0.01 0.00 0.00 0.00 0.00 0.00 0.00 0.00 0.00 0.00 0.00 0.01 0.01 0.01 0.01 0.01 0.01 0.01 0.01 0.01 0.00 0.00 0.00 0.00
0.00 0.00 0.00 0.00 0.00 0.00 0.00 0.00 0.00 0.00 0.00 0.00 0.00 0.00 0.00 0.01 0.01 0.01 0.01 0.01 0.01 0.00 0.00 0.00 0.00 0.00 0.00 0.00 0.00 0.00 0.00 0.00 0.00 0.00 0.01 0.01 0.01 0.01 0.01 0.01 0.01 0.00 0.00 0.00
0.00 0.00 0.00 0.00 0.00 0.00 0.00 0.00 0.00 0.00 0.00 0.00 0.00 0.00 0.00 0.01 0.01 0.01 0.01 0.01 0.00 0.00 0.00 0.00 0.00 0.00 0.00 0.00 0.00 0.00 0.00 0.00 0.00 0.00 0.00 0.00 0.00 0.01 0.01 0.01 0.01 0.01 0.01 0.00
0.00 0.00 0.00 0.00 0.00 0.00 0.00 0.00 0.00 0.00 0.00 0.00 0.00 0.00 0.00 0.01 0.01 0.01 0.01 0.01 0.00 0.00 0.00 0.00 0.00 0.00 0.00 0.00 0.00 0.00 0.00 0.00 0.00 0.00 0.00 0.00 0.00 0.00 0.00 0.00 0.00 0.00 0.01 0.00
0.01 0.00 0.00 0.00 0.00 0.00 0.00 0.00 0.00 0.00 0.00 0.00 0.00 0.00 0.00 0.01 0.01 0.01 0.00 0.01 0.00 0.00 0.00 0.00 0.00 0.00 0.00 0.00 0.00 0.00 0.00 0.00 0.00 0.00 0.00 0.00 0.00 0.00 0.00 0.00 0.00 0.00 0.00 0.00
0.00 0.00 0.00 0.00 0.00 0.00 0.00 0.00 0.00 0.00 0.00 0.00 0.00 0.00 0.00 0.01 0.01 0.01 0.01 0.00 0.00 0.00 0.00 0.00 0.00 0.00 0.00 0.01 0.00 0.00 0.00 0.00 0.00 0.00 0.00 0.00 0.00 0.00 0.00 0.00 0.00 0.00 0.00 0.00
0.00 0.00 0.00 0.00 0.00 0.00 0.00 0.00 0.00 0.00 0.00 0.00 0.00 0.00 0.00 0.00 0.01 0.01 0.01 0.01 0.00 0.00 0.00 0.00 0.00 0.01 0.01 0.01 0.01 0.01 0.00 0.00 0.00 0.00 0.00 0.00 0.00 0.00 0.00 0.00 0.00 0.00 0.00 0.00
0.00 0.01 0.01 0.01 0.01 0.01 0.00 0.00 0.00 0.00 0.01 0.01 0.00 0.00 0.00 0.01 0.01 0.02 0.01 0.01 0.01 0.01 0.00 0.01 0.01 0.01 0.01 0.01 0.01 0.00 0.01 0.01 0.01 0.01 0.01 0.01 0.01 0.00 0.00 0.00 0.00 0.00 0.00 0.00
0.01 0.01 0.02 0.03 0.02 0.01 0.01 0.01 0.01 0.01 0.01 0.01 0.01 0.01 0.01 0.01 0.01 0.02 0.02 0.01 0.01 0.01 0.00 0.00 0.01 0.01 0.00 0.00 0.00 0.00 0.00 0.01 0.01 0.01 0.01 0.01 0.01 0.01 0.01 0.01 0.00 0.00 0.00 0.00
0.01 0.01 0.01 0.01 0.01 0.02 0.01 0.01 0.02 0.02 0.02 0.01 0.01 0.01 0.01 0.01 0.01 0.02 0.02 0.01 0.01 0.01 0.00 0.00 0.00 0.00 0.00 0.00 0.00 0.00 0.00 0.00 0.01 0.01 0.01 0.01 0.02 0.02 0.02 0.01 0.01 0.01 0.00 0.01
0.01 0.01 0.01 0.01 0.01 0.02 0.02 0.01 0.02 0.02 0.02 0.01 0.01 0.01 0.01 0.01 0.01 0.02 0.02 0.01 0.01 0.01 0.01 0.00 0.00 0.00 0.00 0.00 0.00 0.00 0.00 0.01 0.01 0.01 0.02 0.02 0.02 0.02 0.02 0.01 0.01 0.01 0.01 0.01
MSLP
1013.64 1014.17 1014.61 1014.92 1015.09 1015.10 1014.96 1014.69 1014.33 1013.93 1013.52 1013.16 1012.90 1012.76 1012.76 1012.89 1013.14 1013.50 1013.92 1014.39 1014.89 1015.40 1015.94 1016.49 1017.09 1017.72 1018.40 1019.12 1019.85 1020.57 1021.26 1021.90 1022.46 1022.94 1023.34 1023.68 1023.97 1024.24 1024.49 1024.73 1024.98 1025.21 1025.43 1025.62
1013.39 1013.86 1014.20 1014.39 1014.42 1014.30 1014.05 1013.70 1013.31 1012.91 1012.56 1012.29 1012.14 1012.12 1012.23 1012.46 1012.79 1013.20 1013.66 1014.16 1014.69 1015.24 1015.82 1016.44 1017.11 1017.83 1018.58 1019.37 1020.16 1020.93 1021.66 1022.31 1022.90 1023.40 1023.82 1024.19 1024.52 1024.82 1025.11 1025.40 1025.68 1025.95 1026.18 1026.38
1013.20 1013.60 1013.84 1013.90 1013.78 1013.52 1013.14 1012.70 1012.26 1011.86 1011.55 1011.36 1011.32 1011.42 1011.65 1012.00 1012.43 1012.93 1013.46 1014.02 1014.60 1015.21 1015.85 1016.53 1017.25 1018.02 1018.83 1019.66 1020.48 1021.27 1022.01 1022.68 1023.27 1023.78 1024.23 1024.62 1024.98 1025.32 1025.66 1025.98 1026.29 1026.57 1026.82 1027.01
1012.98 1013.30 1013.44 1013.38 1013.14 1012.75 1012.27 1011.75 1011.26 1010.86 1010.59 1010.48 1010.53 1010.75 1011.11 1011.59 1012.14 1012.73 1013.36 1014.00 1014.65 1015.31 1016.00 1016.73 1017.49 1018.29 1019.11 1019.95 1020.78 1021.57 1022.31 1022.98 1023.57 1024.09 1024.56 1024.98 1025.37 1025.74 1026.10 1026.44 1026.77 1027.06 1027.30 1027.49
1012.62 1012.87 1012.92 1012.78 1012.45 1011.97 1011.43 1010.87 1010.37 1009.99 1009.77 1009.73 1009.89 1010.23 1010.71 1011.30 1011.97 1012.67 1013.39 1014.11 1014.82 1015.53 1016.26 1017.01 1017.78 1018.58 1019.41 1020.23 1021.04 1021.82 1022.54 1023.20 1023.80 1024.33 1024.81 1025.26 1025.67 1026.07 1026.45 1026.80 1027.13 1027.42 1027.65 1027.82
1012.02 1012.21 1012.21 1012.02 1011.66 1011.17 1010.62 1010.08 1009.62 1009.29 1009.14 1009.20 1009.46 1009.90 1010.49 1011.19 1011.96 1012.75 1013.55 1014.33 1015.09 1015.83 1016.58 1017.33 1018.09 1018.88 1019.67 1020.47 1021.25 1022.00 1022.71 1023.37 1023.97 1024.51 1025.02 1025.48 1025.92 1026.33 1026.72 1027.08 1027.40 1027.68 1027.90 1028.05
1011.12 1011.27 1011.26 1011.08 1010.75 1010.31 1009.83 1009.38 1009.01 1008.78 1008.74 1008.90 1009.26 1009.81 1010.49 1011.27 1012.11 1012.97 1013.81 1014.63 1015.41 1016.17 1016.91 1017.65 1018.39 1019.14 1019.90 1020.66 1021.41 1022.14 1022.84 1023.49 1024.09 1024.66 1025.18 1025.66 1026.12 1026.54 1026.94 1027.30 1027.61 1027.87 1028.07 1028.21
1009.94 1010.07 1010.08 1009.96 1009.73 1009.41 1009.07 1008.76 1008.53 1008.45 1008.54 1008.82 1009.28 1009.91 1010.66 1011.50 1012.38 1013.27 1014.13 1014.96 1015.74 1016.49 1017.21 1017.92 1018.63 1019.35 1020.07 1020.81 1021.53 1022.24 1022.93 1023.58 1024.20 1024.77 1025.31 1025.81 1026.28 1026.71 1027.11 1027.46 1027.76 1028.01 1028.20 1028.33
1008.57 1008.70 1008.76 1008.73 1008.63 1008.49 1008.33 1008.21 1008.17 1008.26 1008.49 1008.89 1009.45 1010.14 1010.94 1011.80 1012.69 1013.58 1014.43 1015.25 1016.01 1016.74 1017.44 1018.12 1018.81 1019.49 1020.20 1020.90 1021.61 1022.31 1023.00 1023.65 1024.28 1024.87 1025.42 1025.93 1026.40 1026.84 1027.23 1027.57 1027.87 1028.11 1028.30 1028.43
1007.14 1007.28 1007.40 1007.49 1007.56 1007.60 1007.65 1007.73 1007.89 1008.15 1008.53 1009.04 1009.67 1010.41 1011.23 1012.09 1012.97 1013.83 1014.66 1015.45 1016.19 1016.89 1017.57 1018.24 1018.90 1019.58 1020.27 1020.97 1021.67 1022.37 1023.05 1023.71 1024.34 1024.93 1025.49 1026.00 1026.47 1026.90 1027.30 1027.64 1027.93 1028.17 1028.36 1028.51
1005.81 1005.97 1006.16 1006.37 1006.59 1006.81 1007.05 1007.34 1007.67 1008.08 1008.58 1009.18 1009.87 1010.63 1011.45 1012.29 1013.14 1013.97 1014.76 1015.52 1016.24 1016.93 1017.60 1018.26 1018.93 1019.61 1020.30 1021.00 1021.71 1022.41 1023.09 1023.75 1024.37 1024.96 1025.51 1026.02 1026.48 1026.91 1027.30 1027.64 1027.94 1028.19 1028.40 1028.56
1004.74 1004.91 1005.16 1005.47 1005.81 1006.19 1006.58 1007.02 1007.49 1008.02 1008.61 1009.26 1009.97 1010.74 1011.53 1012.34 1013.15 1013.94 1014.71 1015.45 1016.16 1016.85 1017.53 1018.21 1018.89 1019.59 1020.30 1021.02 1021.73 1022.43 1023.11 1023.76 1024.38 1024.95 1025.48 1025.97 1026.43 1026.85 1027.23 1027.58 1027.89 1028.16 1028.39 1028.58
1003.99 1004.18 1004.47 1004.84 1005.27 1005.74 1006.25 1006.78 1007.34 1007.93 1008.57 1009.24 1009.95 1010.70 1011.46 1012.24 1013.01 1013.78 1014.52 1015.25 1015.97 1016.67 1017.38 1018.09 1018.81 1019.53 1020.27 1021.00 1021.73 1022.43 1023.11 1023.74 1024.34 1024.89 1025.40 1025.87 1026.31 1026.72 1027.10 1027.45 1027.78 1028.08 1028.34 1028.56
1003.56 1003.76 1004.08 1004.49 1004.96 1005.48 1006.02 1006.59 1007.19 1007.80 1008.44 1009.11 1009.80 1010.52 1011.25 1011.99 1012.74 1013.49 1014.22 1014.96 1015.69 1016.42 1017.16 1017.91 1018.67 1019.43 1020.19 1020.95 1021.68 1022.38 1023.05 1023.67 1024.25 1024.78 1025.26 1025.71 1026.14 1026.54 1026.92 1027.29 1027.63 1027.96 1028.25 1028.49
1003.37 1003.59 1003.92 1004.34 1004.81 1005.33 1005.88 1006.44 1007.02 1007.62 1008.24 1008.88 1009.54 1010.23 1010.93 1011.65 1012.38 1013.12 1013.86 1014.61 1015.37 1016.13 1016.90 1017.69 1018.48 1019.27 1020.06 1020.83 1021.57 1022.27 1022.93 1023.54 1024.10 1024.61 1025.08 1025.51 1025.93 1026.32 1026.71 1027.09 1027.45 1027.80 1028.12 1028.39
1003.29 1003.54 1003.88 1004.28 1004.74 1005.23 1005.74 1006.27 1006.82 1007.38 1007.96 1008.57 1009.20 1009.86 1010.55 1011.25 1011.98 1012.72 1013.47 1014.23 1015.01 1015.80 1016.60 1017.41 1018.23 1019.04 1019.84 1020.62 1021.37 1022.08 1022.73 1023.34 1023.88 1024.39 1024.85 1025.28 1025.69 1026.09 1026.48 1026.87 1027.26 1027.62 1027.96 1028.25
1003.20 1003.48 1003.82 1004.22 1004.65 1005.10 1005.56 1006.05 1006.55 1007.07 1007.62 1008.20 1008.81 1009.46 1010.13 1010.84 1011.56 1012.31 1013.07 1013.85 1014.64 1015.45 1016.26 1017.08 1017.91 1018.73 1019.54 1020.33 1021.08 1021.79 1022.45 1023.05 1023.61 1024.11 1024.58 1025.02 1025.44 1025.85 1026.25 1026.66 1027.05 1027.43 1027.78 1028.08
1003.01 1003.32 1003.67 1004.05 1004.45 1004.86 1005.28 1005.72 1006.19 1006.68 1007.21 1007.78 1008.39 1009.04 1009.72 1010.43 1011.16 1011.92 1012.69 1013.47 1014.26 1015.07 1015.88 1016.70 1017.53 1018.35 1019.16 1019.94 1020.70 1021.42 1022.09 1022.71 1023.28 1023.81 1024.30 1024.76 1025.20 1025.62 1026.04 1026.45 1026.85 1027.23 1027.58 1027.88
1002.69 1003.02 1003.37 1003.73 1004.10 1004.48 1004.88 1005.29 1005.74 1006.22 1006.75 1007.33 1007.95 1008.61 1009.31 1010.04 1010.79 1011.55 1012.32 1013.10 1013.88 1014.68 1015.48 1016.28 1017.09 1017.91 1018.71 1019.50 1020.27 1021.00 1021.69 1022.34 1022.94 1023.50 1024.02 1024.51 1024.98 1025.42 1025.85 1026.27 1026.67 1027.05 1027.38 1027.68
1002.26 1002.60 1002.94 1003.28 1003.63 1003.99 1004.37 1004.78 1005.22 1005.72 1006.26 1006.86 1007.51 1008.20 1008.92 1009.67 1010.43 1011.20 1011.97 1012.74 1013.51 1014.29 1015.07 1015.86 1016.66 1017.46 1018.26 1019.05 1019.83 1020.58 1021.30 1021.99 1022.63 1023.23 1023.79 1024.31 1024.80 1025.27 1025.71 1026.13 1026.53 1026.89 1027.21 1027.48
1001.82 1002.13 1002.44 1002.76 1003.09 1003.43 1003.80 1004.22 1004.68 1005.19 1005.77 1006.40 1007.08 1007.80 1008.55 1009.32 1010.09 1010.87 1011.64 1012.41 1013.17 1013.93 1014.70 1015.47 1016.26 1017.05 1017.85 1018.66 1019.45 1020.23 1020.98 1021.70 1022.38 1023.02 1023.62 1024.18 1024.69 1025.18 1025.63 1026.05 1026.43 1026.78 1027.08 1027.32
1001.44 1001.70 1001.96 1002.25 1002.55 1002.88 1003.25 1003.67 1004.15 1004.69 1005.30 1005.96 1006.68 1007.43 1008.21 1008.99 1009.79 1010.57 1011.35 1012.11 1012.87 1013.63 1014.39 1015.16 1015.94 1016.74 1017.55 1018.37 1019.18 1019.99 1020.77 1021.52 1022.24 1022.91 1023.54 1024.13 1024.67 1025.16 1025.62 1026.03 1026.40 1026.73 1027.00 1027.22
1001.18 1001.36 1001.57 1001.81 1002.08 1002.39 1002.76 1003.18 1003.68 1004.25 1004.88 1005.58 1006.32 1007.10 1007.90 1008.71 1009.52 1010.32 1011.11 1011.88 1012.65 1013.41 1014.19 1014.97 1015.76 1016.58 1017.40 1018.23 1019.07 1019.89 1020.70 1021.47 1022.22 1022.91 1023.56 1024.17 1024.72 1025.22 1025.68 1026.08 1026.44 1026.75 1027.00 1027.19
1001.05 1001.16 1001.30 1001.48 1001.72 1002.01 1002.37 1002.81 1003.32 1003.90 1004.56 1005.27 1006.04 1006.84 1007.66 1008.49 1009.31 1010.13 1010.94 1011.73 1012.52 1013.31 1014.11 1014.91 1015.73 1016.56 1017.41 1018.26 1019.11 1019.95 1020.77 1021.55 1022.31 1023.02 1023.67 1024.28 1024.84 1025.34 1025.80 1026.19 1026.54 1026.83 1027.05 1027.21
1001.03 1001.06 1001.14 1001.28 1001.48 1001.76 1002.12 1002.55 1003.07 1003.67 1004.34 1005.06 1005.84 1006.66 1007.49 1008.34 1009.18 1010.02 1010.85 1011.68 1012.50 1013.33 1014.15 1014.99 1015.84 1016.70 1017.56 1018.42 1019.28 1020.13 1020.95 1021.74 1022.49 1023.20 1023.85 1024.46 1025.01 1025.51 1025.95 1026.34 1026.67 1026.94 1027.14 1027.27
1001.05 1001.02 1001.06 1001.17 1001.36 1001.63 1001.99 1002.43 1002.95 1003.56 1004.23 1004.97 1005.75 1006.57 1007.41 1008.27 1009.14 1010.00 1010.86 1011.72 1012.58 1013.45 1014.31 1015.18 1016.06 1016.94 1017.82 1018.70 1019.56 1020.41 1021.22 1022.00 1022.73 1023.43 1024.07 1024.66 1025.20 1025.68 1026.11 1026.49 1026.80 1027.05 1027.22 1027.33
1001.04 1000.98 1001.01 1001.11 1001.31 1001.59 1001.96 1002.41 1002.95 1003.56 1004.24 1004.98 1005.77 1006.59 1007.44 1008.31 1009.18 1010.07 1010.96 1011.85 1012.75 1013.65 1014.55 1015.46 1016.37 1017.27 1018.16 1019.04 1019.90 1020.73 1021.53 1022.29 1023.01 1023.68 1024.30 1024.87 1025.38 1025.85 1026.26 1026.61 1026.90 1027.12 1027.27 1027.34
Thickness
5710 5712 5711 5709 5708 5708 5707 5710 5707 5712 5716 5726 5733 5733 5734 5734 5733 5731 5729 5728 5727 5725 5724 5721 5719 5717 5715 5712 5710 5707 5702 5699 5698 5696 5694 5692 5690 5688 5686 5684 5684 5682 5681 5679
5702 5706 5707 5705 5710 5710 5709 5712 5713 5714 5718 5735 5738 5737 5734 5734 5732 5729 5729 5729 5729 5728 5726 5723 5721 5719 5716 5713 5711 5707 5703 5700 5697 5695 5692 5689 5688 5686 5683 5681 5680 5678 5677 5676
5694 5700 5699 5696 5712 5713 5713 5718 5717 5713 5723 5733 5731 5731 5733 5734 5733 5731 5731 5731 5730 5729 5728 5726 5725 5722 5717 5715 5712 5708 5704 5700 5696 5693 5690 5687 5686 5683 5680 5678 5676 5674 5673 5672
5689 5689 5676 5709 5725 5721 5716 5719 5724 5725 5729 5731 5731 5734 5736 5737 5735 5734 5733 5732 5731 5731 5729 5729 5727 5723 5719 5715 5711 5708 5704 5700 5696 5693 5689 5686 5683 5680 5678 5677 5674 5672 5670 5669
5682 5679 5688 5707 5717 5717 5712 5714 5726 5725 5728 5730 5732 5731 5734 5737 5737 5736 5736 5735 5734 5734 5732 5729 5726 5723 5718 5714 5711 5707 5703 5700 5696 5693 5688 5684 5681 5678 5676 5674 5672 5669 5668 5665
5676 5671 5675 5702 5718 5723 5715 5708 5727 5728 5727 5727 5727 5722 5729 5735 5735 5734 5734 5734 5733 5732 5731 5728 5725 5722 5717 5713 5709 5705 5703 5700 5696 5693 5688 5683 5680 5678 5674 5671 5668 5666 5664 5662
5672 5672 5688 5711 5715 5713 5697 5709 5726 5728 5727 5726 5725 5730 5733 5734 5732 5731 5731 5730 5730 5729 5727 5726 5724 5719 5714 5711 5708 5707 5703 5699 5695 5691 5686 5683 5679 5675 5671 5669 5665 5663 5661 5659
5671 5667 5680 5708 5707 5705 5713 5724 5725 5725 5726 5725 5727 5728 5729 5729 5728 5727 5726 5725 5725 5724 5722 5722 5720 5716 5712 5709 5708 5705 5700 5695 5692 5688 5684 5680 5675 5672 5669 5666 5662 5659 5657 5656
5682 5686 5700 5705 5707 5712 5716 5717 5720 5721 5722 5722 5721 5722 5724 5724 5724 5723 5723 5722 5721 5720 5717 5717 5716 5714 5710 5708 5705 5701 5696 5692 5689 5685 5681 5678 5673 5669 5666 5663 5660 5658 5655 5653
5680 5688 5694 5698 5702 5706 5709 5712 5715 5717 5717 5718 5718 5719 5719 5719 5719 5719 5719 5718 5717 5715 5713 5712 5712 5710 5709 5706 5703 5699 5694 5690 5687 5683 5678 5675 5671 5668 5664 5661 5659 5656 5653 5650
5674 5683 5685 5690 5695 5699 5701 5706 5709 5711 5713 5713 5714 5714 5715 5715 5715 5715 5714 5714 5713 5712 5710 5709 5708 5705 5704 5703 5700 5696 5692 5688 5684 5680 5676 5671 5667 5664 5661 5659 5658 5654 5651 5649
5671 5682 5682 5686 5693 5694 5694 5697 5702 5703 5705 5708 5709 5709 5710 5711 5711 5711 5710 5710 5708 5707 5706 5706 5705 5702 5700 5699 5697 5694 5690 5685 5681 5676 5672 5668 5663 5658 5652 5651 5648 5646 5644 5642
5674 5678 5680 5684 5687 5689 5690 5693 5696 5698 5699 5701 5704 5705 5705 5705 5705 5705 5705 5705 5704 5703 5702 5702 5700 5698 5697 5695 5692 5690 5687 5682 5677 5673 5669 5665 5661 5657 5651 5644 5640 5638 5635 5633
5665 5667 5669 5675 5678 5682 5684 5687 5690 5692 5694 5696 5697 5698 5699 5699 5699 5699 5699 5700 5700 5698 5697 5696 5695 5693 5692 5690 5686 5684 5681 5676 5672 5669 5665 5662 5658 5654 5650 5645 5640 5635 5629 5625
5656 5660 5664 5668 5670 5673 5676 5679 5680 5683 5686 5688 5690 5691 5691 5692 5692 5693 5694 5694 5694 5692 5690 5689 5688 5686 5685 5684 5681 5678 5675 5671 5667 5664 5660 5657 5653 5649 5646 5641 5637 5632 5626 5620
5648 5651 5655 5658 5660 5664 5667 5670 5673 5675 5678 5680 5682 5684 5685 5686 5687 5686 5687 5687 5686 5685 5684 5684 5682 5680 5679 5677 5675 5672 5668 5663 5660 5658 5655 5651 5647 5644 5640 5636 5631 5626 5622 5617
5639 5642 5646 5649 5653 5656 5660 5664 5666 5669 5672 5674 5675 5677 5678 5679 5679 5679 5679 5680 5681 5680 5679 5678 5677 5675 5673 5671 5669 5666 5663 5657 5652 5651 5649 5646 5642 5638 5635 5630 5626 5621 5616 5611
5637 5640 5644 5647 5648 5649 5653 5656 5659 5661 5665 5667 5668 5669 5670 5671 5672 5672 5672 5673 5672 5672 5672 5671 5670 5667 5666 5664 5662 5660 5657 5653 5649 5646 5642 5638 5635 5631 5627 5624 5619 5614 5608 5602
5627 5630 5634 5637 5640 5643 5646 5648 5651 5654 5657 5659 5660 5661 5664 5666 5666 5665 5665 5664 5664 5663 5664 5663 5660 5660 5658 5656 5653 5651 5649 5646 5642 5639 5635 5629 5626 5623 5619 5616 5611 5607 5601 5595
5618 5621 5624 5627 5631 5633 5637 5641 5644 5646 5648 5650 5652 5653 5654 5656 5656 5656 5656 5656 5657 5657 5656 5655 5653 5651 5650 5647 5644 5643 5641 5638 5634 5631 5627 5623 5619 5615 5611 5607 5603 5598 5593 5588
5608 5611 5614 5617 5620 5624 5629 5633 5635 5637 5639 5642 5643 5645 5645 5646 5646 5647 5647 5647 5647 5647 5646 5643 5644 5642 5641 5638 5634 5634 5632 5629 5625 5622 5618 5615 5611 5607 5602 5598 5594 5589 5585 5580
5599 5602 5605 5608 5612 5615 5620 5624 5626 5628 5630 5632 5634 5635 5635 5636 5636 5637 5638 5639 5638 5635 5636 5635 5634 5632 5630 5627 5626 5624 5622 5619 5616 5612 5609 5606 5602 5598 5594 5589 5584 5579 5574 5570
5590 5593 5596 5599 5603 5607 5610 5613 5616 5619 5621 5622 5624 5626 5627 5628 5628 5629 5628 5629 5628 5626 5626 5626 5624 5621 5618 5618 5617 5615 5612 5609 5605 5602 5599 5595 5592 5588 5584 5579 5574 5569 5564 5559
5580 5583 5586 5590 5594 5597 5600 5603 5605 5608 5610 5612 5614 5616 5617 5617 5618 5619 5620 5618 5617 5616 5617 5615 5612 5610 5608 5609 5607 5604 5602 5598 5595 5592 5588 5584 5580 5576 5572 5568 5564 5559 5554 5549
5570 5574 5577 5581 5584 5588 5591 5594 5595 5597 5599 5601 5604 5606 5607 5608 5609 5609 5608 5607 5606 5606 5606 5604 5602 5600 5600 5599 5596 5594 5591 5588 5584 5580 5577 5573 5569 5565 5561 5557 5553 5548 5543 5538
5561 5564 5568 5572 5576 5579 5582 5584 5585 5587 5589 5590 5592 5594 5596 5597 5597 5597 5597 5597 5596 5594 5595 5593 5591 5589 5589 5587 5584 5581 5578 5575 5572 5568 5565 5561 5557 5553 5549 5545 5541 5537 5532 5527
5552 5555 5559 5563 5566 5569 5571 5574 5576 5578 5579 5581 5583 5583 5584 5585 5586 5586 5585 5585 5584 5583 5583 5582 5580 5577 5576 5573 5571 5568 5566 5563 5560 5557 5553 5549 5545 5541 5537 5533 5528 5524 5519 5515